GW3498 Weather Reports


Display with metric or nautical units.
time (UTC)temp
F
wind
direction
speed
MPH
gust
MPH
rain 1hr
in
rain 24hr
in
rain mn
in
humidity
%
barometer
mb
20260831063517 75 200 0.0 1.0 0.00 0.00 0.00 78 1015.6
20260831062532 74 175 0.0 1.0 0.00 0.00 0.00 81 1015.5
20260831061526 74 0.0 0.0 0.00 0.00 0.00 82 1015.4
20260831060522 73 0.0 0.0 0.00 0.00 0.00 82 1015.3
20260831055536 73 0.0 0.0 0.00 0.00 0.00 82 1015.4
20260831054551 72 0.0 0.0 0.00 0.00 0.00 83 1015.5
20260831053525 72 0.0 0.0 0.00 0.00 0.00 84 1015.3
20260831052520 72 0.0 0.0 0.00 0.00 0.00 84 1015.3
20260831051533 72 0.0 0.0 0.00 0.00 0.00 84 1015.3
20260831050528 72 0.0 0.0 0.00 0.00 0.00 84 1015.3
20260831045524 72 0.0 0.0 0.00 0.00 0.00 83 1015.3
20260831044538 72 52 0.0 1.0 0.00 0.00 0.00 84 1015.2
20260831043531 71 0.0 0.0 0.00 0.00 0.00 84 1015.4
20260831042527 72 0.0 0.0 0.00 0.00 0.00 83 1015.2
20260831041520 72 21 0.0 1.0 0.00 0.00 0.00 84 1015.2
20260831040534 71 25 0.0 1.0 0.00 0.00 0.00 87 1015.2
20260831035529 70 0.0 0.0 0.00 0.00 0.00 88 1015.2
20260831034523 71 0.0 0.0 0.00 0.00 0.00 87 1015.2
20260831033519 71 0.0 0.0 0.00 0.00 0.00 86 1015.0
20260831032532 72 0.0 0.0 0.00 0.00 0.00 85 1015.0
20260831031526 73 0.0 0.0 0.00 0.00 0.00 84 1015.0
20260831030520 73 0.0 0.0 0.00 0.00 0.00 84 1015.0
20260831025536 73 0.0 0.0 0.00 0.00 0.00 83 1015.1
20260831024530 73 0.0 0.0 0.00 0.00 0.00 83 1015.2
20260831023525 72 0.0 0.0 0.00 0.00 0.00 84 1015.3
20260831022519 73 0.0 0.0 0.00 0.00 0.00 83 1015.2
20260831021534 73 0.0 0.0 0.00 0.00 0.00 83 1015.2
20260831020609 73 36 0.0 1.0 0.00 0.00 0.00 84 1015.2
20260831015522 73 0.0 0.0 0.00 0.00 0.00 84 1015.3
20260831014517 74 0.0 0.0 0.00 0.00 0.00 82 1015.4
20260831013532 74 32 0.0 1.0 0.00 0.00 0.00 84 1015.5
20260831012527 74 0.0 0.0 0.00 0.00 0.00 83 1015.5
20260831011521 75 154 0.0 1.0 0.00 0.00 0.00 82 1015.5
20260831010536 74 0.0 0.0 0.00 0.00 0.00 82 1015.5
20260831005609 75 0.0 0.0 0.00 0.00 0.00 82 1015.3
20260831004524 75 0.0 0.0 0.00 0.00 0.00 81 1015.4
20260831003518 75 0.0 0.0 0.00 0.00 0.00 80 1015.3
20260831002533 76 40 0.0 1.0 0.00 0.00 0.00 80 1015.3
20260831001528 75 35 0.0 1.0 0.00 0.00 0.00 81 1015.3
20260831000544 75 0.0 0.0 0.00 0.00 0.00 80 1015.4
20260830235537 76 0.0 0.0 0.00 0.00 0.00 80 1015.4
20260830234531 76 0.0 0.0 0.00 0.00 0.00 79 1015.3
20260830233525 76 0.0 0.0 0.00 0.00 0.00 79 1015.4
20260830232520 76 25 0.0 1.0 0.00 0.00 0.00 79 1015.3
20260830231537 76 37 0.0 1.0 0.00 0.00 0.00 79 1015.3
20260830230529 76 0.0 0.0 0.00 0.00 0.00 79 1015.4
20260830225523 76 76 0.0 1.0 0.00 0.00 0.00 79 1015.4
20260830224518 75 0.0 0.0 0.00 0.00 0.00 80 1015.3
20260830223532 75 0.0 0.0 0.00 0.00 0.00 80 1015.3
20260830222526 75 0.0 0.0 0.00 0.00 0.00 79 1015.2
20260830221521 76 0.0 0.0 0.00 0.00 0.00 78 1015.2
20260830220535 76 0.0 0.0 0.00 0.00 0.00 77 1015.0
20260830215552 77 0.0 0.0 0.00 0.00 0.00 75 1015.1
20260830214525 78 17 1.0 2.0 0.00 0.00 0.00 73 1015.2
20260830213519 78 351 2.0 6.0 0.00 0.00 0.00 73 1015.2
20260830212533 76 345 1.0 2.0 0.00 0.00 0.00 77 1015.2
20260830211527 76 44 0.0 1.0 0.00 0.00 0.00 79 1015.0
20260830210521 76 0.0 0.0 0.00 0.00 0.00 79 1015.0
20260830205537 76 0.0 0.0 0.00 0.00 0.00 79 1015.0
20260830204552 76 0.0 0.0 0.00 0.00 0.00 78 1014.9
20260830203526 77 0.0 0.0 0.00 0.00 0.00 76 1014.9
20260830202521 78 0.0 0.0 0.00 0.00 0.00 75 1014.9
20260830201556 78 24 1.0 2.0 0.00 0.00 0.00 74 1014.9
20260830200530 78 320 0.0 2.0 0.00 0.00 0.00 75 1014.8
20260830195524 78 320 1.0 4.0 0.00 0.00 0.00 75 1014.8
20260830194520 79 248 1.0 2.0 0.00 0.00 0.00 74 1014.8
20260830193534 79 338 2.0 4.0 0.00 0.00 0.00 74 1014.6
20260830192528 79 352 2.0 6.0 0.00 0.00 0.00 73 1014.8
20260830191524 79 4 2.0 4.0 0.00 0.00 0.00 73 1014.7
20260830190539 80 340 2.0 4.0 0.00 0.00 0.00 72 1014.6
20260830185534 80 332 2.0 4.0 0.00 0.00 0.00 72 1014.4
20260830184529 80 337 1.0 4.0 0.00 0.00 0.00 71 1014.2
20260830183524 80 5 2.0 6.0 0.00 0.00 0.00 71 1014.3
20260830182520 80 357 1.0 3.0 0.00 0.00 0.00 70 1014.2
20260830181533 81 333 3.0 9.0 0.00 0.00 0.00 69 1014.2
20260830180528 81 347 3.0 6.0 0.00 0.00 0.00 68 1014.2
20260830175523 81 341 3.0 7.0 0.00 0.00 0.00 68 1014.1
20260830174518 81 351 4.0 7.0 0.00 0.00 0.00 68 1014.0
20260830173535 82 349 3.0 6.0 0.00 0.00 0.00 68 1014.0
20260830172551 82 12 2.0 6.0 0.00 0.00 0.00 67 1013.8
20260830171525 83 3 2.0 6.0 0.00 0.00 0.00 66 1013.8
20260830170521 83 283 1.0 4.0 0.00 0.00 0.00 65 1013.9
20260830165534 84 3 3.0 7.0 0.00 0.00 0.00 65 1013.7
20260830164528 84 307 2.0 7.0 0.00 0.00 0.00 63 1013.8
20260830163524 85 1 2.0 7.0 0.00 0.00 0.00 63 1013.8
20260830162517 86 300 2.0 6.0 0.00 0.00 0.00 61 1013.7
20260830161532 86 344 3.0 7.0 0.00 0.00 0.00 61 1013.8
20260830160527 87 139 2.0 8.0 0.00 0.00 0.00 60 1013.7
20260830155521 88 267 2.0 8.0 0.00 0.00 0.00 59 1013.7
20260830154516 88 247 2.0 8.0 0.00 0.00 0.00 58 1013.6
20260830153531 89 313 3.0 8.0 0.00 0.00 0.00 57 1013.7
20260830152525 90 215 2.0 7.0 0.00 0.00 0.00 55 1013.4
20260830151520 90 266 3.0 8.0 0.00 0.00 0.00 54 1013.4
20260830150534 90 182 3.0 9.0 0.00 0.00 0.00 54 1013.4
20260830145530 90 327 3.0 9.0 0.00 0.00 0.00 54 1013.4
20260830144524 91 252 2.0 6.0 0.00 0.00 0.00 51 1013.4
20260830143520 90 290 3.0 10.0 0.00 0.00 0.00 51 1013.4
20260830142534 91 208 3.0 9.0 0.00 0.00 0.00 51 1013.3
20260830141529 91 283 3.0 11.0 0.00 0.00 0.00 51 1013.3
20260830140523 91 162 3.0 8.0 0.00 0.00 0.00 51 1013.3
20260830135517 93 220 3.0 9.0 0.00 0.00 0.00 49 1013.3
20260830134533 95 324 2.0 4.0 0.00 0.00 0.00 38 1013.3
20260830133527 94 345 2.0 4.0 0.00 0.00 0.00 38 1013.4
20260830132522 95 216 1.0 4.0 0.00 0.00 0.00 37 1013.3
20260830131516 94 223 1.0 3.0 0.00 0.00 0.00 38 1013.4
20260830130552 97 248 1.0 3.0 0.00 0.00 0.00 36 1013.5
20260830125525 94 192 1.0 3.0 0.00 0.00 0.00 39 1013.6
20260830124522 95 230 1.0 3.0 0.00 0.00 0.00 39 1013.8
20260830123535 96 282 1.0 4.0 0.00 0.00 0.00 38 1013.8
20260830122530 94 195 1.0 3.0 0.00 0.00 0.00 39 1013.9
20260830121546 93 248 1.0 1.0 0.00 0.00 0.00 39 1014.0
20260830120519 93 355 1.0 3.0 0.00 0.00 0.00 41 1014.1
20260830115534 93 233 1.0 2.0 0.00 0.00 0.00 40 1014.1
20260830114531 93 221 1.0 3.0 0.00 0.00 0.00 41 1014.0
20260830113544 92 0 2.0 4.0 0.00 0.00 0.00 42 1014.2
20260830112539 91 351 2.0 4.0 0.00 0.00 0.00 42 1014.2
20260830111532 91 320 1.0 7.0 0.00 0.00 0.00 41 1014.0
20260830110527 91 349 2.0 4.0 0.00 0.00 0.00 42 1014.2
20260830105522 92 274 2.0 3.0 0.00 0.00 0.00 41 1014.2
20260830104517 91 293 1.0 4.0 0.00 0.00 0.00 43 1014.3
20260830103613 91 214 1.0 2.0 0.00 0.00 0.00 43 1014.2
20260830102528 91 210 1.0 4.0 0.00 0.00 0.00 44 1014.4
20260830101523 90 197 2.0 4.0 0.00 0.00 0.00 44 1014.4
20260830100518 91 101 1.0 3.0 0.00 0.00 0.00 43 1014.5
20260830095531 92 169 2.0 4.0 0.00 0.00 0.00 36 1014.7
20260830094527 92 193 1.0 3.0 0.00 0.00 0.00 36 1014.6
20260830093519 91 181 0.0 1.0 0.00 0.00 0.00 41 1014.7
20260830092534 90 192 1.0 2.0 0.00 0.00 0.00 45 1014.8
20260830091528 89 195 1.0 2.0 0.00 0.00 0.00 46 1014.9
20260830090523 90 182 0.0 1.0 0.00 0.00 0.00 43 1014.9
20260830085517 89 197 1.0 2.0 0.00 0.00 0.00 44 1014.9
20260830084533 89 154 0.0 1.0 0.00 0.00 0.00 48 1014.9
20260830083528 88 194 0.0 1.0 0.00 0.00 0.00 49 1014.8
20260830082521 87 167 0.0 1.0 0.00 0.00 0.00 51 1014.8
20260830081536 87 141 0.0 2.0 0.00 0.00 0.00 52 1014.9
20260830080530 86 169 0.0 2.0 0.00 0.00 0.00 55 1014.8
20260830075545 85 148 0.0 2.0 0.00 0.00 0.00 55 1014.8
20260830074519 84 161 0.0 2.0 0.00 0.00 0.00 58 1014.8
20260830073535 83 147 1.0 3.0 0.00 0.00 0.00 58 1014.8
20260830072530 80 152 1.0 2.0 0.00 0.00 0.00 63 1014.7
20260830071527 79 190 0.0 1.0 0.00 0.00 0.00 67 1014.6
20260830070521 78 141 0.0 2.0 0.00 0.00 0.00 68 1014.8
20260830065535 77 172 0.0 1.0 0.00 0.00 0.00 71 1014.8
20260830064529 77 171 0.0 1.0 0.00 0.00 0.00 71 1014.7